Time,TemperatureF,DewpointF,PressureIn,WindDirection,WindDirectionDegrees,WindSpeedMPH,WindSpeedGustMPH,Humidity,HourlyPrecipIn,Conditions,Clouds,dailyrainin,SoftwareType,DateUTC
2013-01-16 00:00:00,9.7,-7.4,23.27,NNW,342,0.0,0.0,45,0.00,,---,0.00,VWS V14.00,2013-01-16 07:00:00,
2013-01-16 00:05:00,9.5,-7.6,23.27,NNW,342,0.0,0.0,45,0.00,,---,0.00,VWS V14.00,2013-01-16 07:05:00,
2013-01-16 00:10:00,9.5,-7.6,23.27,NNW,342,0.0,0.0,45,0.00,,---,0.00,VWS V14.00,2013-01-16 07:10:00,
2013-01-16 00:16:00,9.5,-7.6,23.27,NNW,342,0.0,0.0,45,0.00,,---,0.00,VWS V14.00,2013-01-16 07:16:00,
2013-01-16 00:21:00,9.3,-7.7,23.27,NNW,342,0.0,0.0,45,0.00,,---,0.00,VWS V14.00,2013-01-16 07:21:00,
2013-01-16 00:26:00,9.1,-7.9,23.27,NNW,342,0.0,0.0,45,0.00,,---,0.00,VWS V14.00,2013-01-16 07:26:00,
2013-01-16 00:31:00,9.1,-7.9,23.30,NNW,342,0.0,0.0,45,0.00,,---,0.00,VWS V14.00,2013-01-16 07:31:00,
2013-01-16 00:36:00,8.8,-8.2,23.30,NNW,342,0.0,0.0,45,0.00,,---,0.00,VWS V14.00,2013-01-16 07:36:00,
2013-01-16 00:41:00,8.8,-8.2,23.30,NNW,342,0.0,0.0,45,0.00,,---,0.00,VWS V14.00,2013-01-16 07:41:00,
2013-01-16 00:46:00,8.8,-8.2,23.27,NNW,342,0.0,0.0,45,0.00,,---,0.00,VWS V14.00,2013-01-16 07:46:00,
2013-01-16 00:51:00,8.6,-8.4,23.27,NNW,342,0.0,0.0,45,0.00,,---,0.00,VWS V14.00,2013-01-16 07:51:00,
2013-01-16 00:56:00,8.4,-8.5,23.27,NNW,342,0.0,0.0,45,0.00,,---,0.00,VWS V14.00,2013-01-16 07:56:00,
2013-01-16 01:01:00,8.2,-8.7,23.27,NNW,342,0.0,0.0,45,0.00,,---,0.00,VWS V14.00,2013-01-16 08:01:00,
2013-01-16 01:06:00,8.1,-8.9,23.27,NNW,342,0.0,0.0,45,0.00,,---,0.00,VWS V14.00,2013-01-16 08:06:00,
2013-01-16 01:11:00,8.1,-8.9,23.27,NNW,342,0.0,0.0,45,0.00,,---,0.00,VWS V14.00,2013-01-16 08:11:00,
2013-01-16 01:16:00,8.2,-8.7,23.27,NNW,342,0.0,0.0,45,0.00,,---,0.00,VWS V14.00,2013-01-16 08:16:00,
2013-01-16 01:21:00,8.2,-8.7,23.27,NNW,342,0.0,0.0,45,0.00,,---,0.00,VWS V14.00,2013-01-16 08:21:00,
2013-01-16 01:26:00,8.1,-8.9,23.27,NNW,342,0.0,0.0,45,0.00,,---,0.00,VWS V14.00,2013-01-16 08:26:00,
2013-01-16 01:31:00,8.1,-8.9,23.27,NNW,342,0.0,0.0,45,0.00,,---,0.00,VWS V14.00,2013-01-16 08:31:00,
2013-01-16 01:36:00,7.9,-9.0,23.27,NNW,342,0.0,0.0,45,0.00,,---,0.00,VWS V14.00,2013-01-16 08:36:00,
2013-01-16 01:41:00,7.9,-9.0,23.27,NNW,342,0.0,0.0,45,0.00,,---,0.00,VWS V14.00,2013-01-16 08:41:00,
2013-01-16 01:47:00,7.7,-9.2,23.30,NNW,342,0.0,0.0,45,0.00,,---,0.00,VWS V14.00,2013-01-16 08:47:00,
2013-01-16 01:52:00,7.7,-9.2,23.30,NNW,342,0.0,0.0,45,0.00,,---,0.00,VWS V14.00,2013-01-16 08:52:00,
2013-01-16 01:57:00,7.7,-9.2,23.30,NNW,342,0.0,0.0,45,0.00,,---,0.00,VWS V14.00,2013-01-16 08:57:00,
2013-01-16 02:02:00,7.7,-9.2,23.30,NNW,342,0.0,0.0,45,0.00,,---,0.00,VWS V14.00,2013-01-16 09:02:00,
2013-01-16 02:07:00,7.5,-9.4,23.30,NNW,342,0.0,0.0,45,0.00,,---,0.00,VWS V14.00,2013-01-16 09:07:00,
2013-01-16 02:12:00,7.5,-9.4,23.30,NNW,342,0.0,0.0,45,0.00,,---,0.00,VWS V14.00,2013-01-16 09:12:00,
2013-01-16 02:17:00,7.3,-9.5,23.27,NNW,342,0.0,0.0,45,0.00,,---,0.00,VWS V14.00,2013-01-16 09:17:00,
2013-01-16 02:22:00,7.2,-9.7,23.27,NNW,342,0.0,0.0,45,0.00,,---,0.00,VWS V14.00,2013-01-16 09:22:00,
2013-01-16 02:27:00,7.2,-9.7,23.27,NNW,342,0.0,0.0,45,0.00,,---,0.00,VWS V14.00,2013-01-16 09:27:00,
2013-01-16 02:32:00,7.0,-9.9,23.30,NNW,342,0.0,0.0,45,0.00,,---,0.00,VWS V14.00,2013-01-16 09:32:00,
2013-01-16 02:37:00,7.0,-9.9,23.30,NNW,342,0.0,0.0,45,0.00,,---,0.00,VWS V14.00,2013-01-16 09:37:00,
2013-01-16 02:42:00,7.0,-9.9,23.30,NNW,342,0.0,0.0,45,0.00,,---,0.00,VWS V14.00,2013-01-16 09:42:00,
2013-01-16 02:47:00,7.0,-9.9,23.30,NNW,342,0.0,0.0,45,0.00,,---,0.00,VWS V14.00,2013-01-16 09:47:00,
2013-01-16 02:52:00,6.8,-10.0,23.30,NNW,342,0.0,0.0,45,0.00,,---,0.00,VWS V14.00,2013-01-16 09:52:00,
2013-01-16 02:57:00,6.8,-10.0,23.30,NNW,342,0.0,0.0,45,0.00,,---,0.00,VWS V14.00,2013-01-16 09:57:00,
2013-01-16 03:02:00,6.6,-10.2,23.30,NNW,342,0.0,0.0,45,0.00,,---,0.00,VWS V14.00,2013-01-16 10:02:00,
2013-01-16 03:08:00,6.6,-10.2,23.30,NNW,342,0.0,0.0,45,0.00,,---,0.00,VWS V14.00,2013-01-16 10:08:00,
2013-01-16 03:13:00,6.6,-10.2,23.30,NNW,342,0.0,0.0,45,0.00,,---,0.00,VWS V14.00,2013-01-16 10:13:00,
2013-01-16 03:18:00,6.4,-10.4,23.30,NNW,342,0.0,0.0,45,0.00,,---,0.00,VWS V14.00,2013-01-16 10:18:00,
2013-01-16 03:23:00,6.4,-10.4,23.30,NNW,342,0.0,0.0,45,0.00,,---,0.00,VWS V14.00,2013-01-16 10:23:00,
2013-01-16 03:28:00,6.3,-10.5,23.30,NNW,342,0.0,0.0,45,0.00,,---,0.00,VWS V14.00,2013-01-16 10:28:00,
2013-01-16 03:33:00,6.1,-10.7,23.30,NNW,342,0.0,0.0,45,0.00,,---,0.00,VWS V14.00,2013-01-16 10:33:00,
2013-01-16 03:38:00,6.1,-10.7,23.30,NNW,342,0.0,0.0,45,0.00,,---,0.00,VWS V14.00,2013-01-16 10:38:00,
2013-01-16 03:43:00,6.1,-10.7,23.30,NNW,342,0.0,0.0,45,0.00,,---,0.00,VWS V14.00,2013-01-16 10:43:00,
2013-01-16 03:48:00,5.9,-10.9,23.30,NNW,342,0.0,0.0,45,0.00,,---,0.00,VWS V14.00,2013-01-16 10:48:00,
2013-01-16 03:53:00,5.9,-10.9,23.30,NNW,342,0.0,0.0,45,0.00,,---,0.00,VWS V14.00,2013-01-16 10:53:00,
2013-01-16 03:58:00,5.9,-10.9,23.30,NNW,342,0.0,0.0,45,0.00,,---,0.00,VWS V14.00,2013-01-16 10:58:00,
2013-01-16 04:04:00,5.7,-11.0,23.30,NNW,342,0.0,0.0,45,0.00,,---,0.00,VWS V14.00,2013-01-16 11:04:00,
2013-01-16 04:09:00,5.5,-11.2,23.30,NNW,342,0.0,0.0,45,0.00,,---,0.00,VWS V14.00,2013-01-16 11:09:00,
2013-01-16 04:14:00,5.5,-11.2,23.30,NNW,342,0.0,0.0,45,0.00,,---,0.00,VWS V14.00,2013-01-16 11:14:00,
2013-01-16 04:19:00,5.4,-11.4,23.30,NNW,342,0.0,0.0,45,0.00,,---,0.00,VWS V14.00,2013-01-16 11:19:00,
2013-01-16 04:24:00,5.4,-11.4,23.30,NNW,342,0.0,0.0,45,0.00,,---,0.00,VWS V14.00,2013-01-16 11:24:00,
2013-01-16 04:29:00,5.4,-11.4,23.30,NNW,342,0.0,0.0,45,0.00,,---,0.00,VWS V14.00,2013-01-16 11:29:00,
2013-01-16 04:34:00,5.5,-11.2,23.30,NNW,342,0.0,0.0,45,0.00,,---,0.00,VWS V14.00,2013-01-16 11:34:00,
2013-01-16 04:39:00,5.5,-11.2,23.30,NNW,342,0.0,0.0,45,0.00,,---,0.00,VWS V14.00,2013-01-16 11:39:00,
2013-01-16 04:44:00,5.4,-11.4,23.30,NNW,342,0.0,0.0,45,0.00,,---,0.00,VWS V14.00,2013-01-16 11:44:00,
2013-01-16 04:49:00,5.4,-11.4,23.30,NNW,342,0.0,0.0,45,0.00,,---,0.00,VWS V14.00,2013-01-16 11:49:00,
2013-01-16 04:54:00,5.4,-11.4,23.30,NNW,342,0.0,0.0,45,0.00,,---,0.00,VWS V14.00,2013-01-16 11:54:00,
2013-01-16 04:59:00,5.4,-11.4,23.30,NNW,342,0.0,0.0,45,0.00,,---,0.00,VWS V14.00,2013-01-16 11:59:00,
2013-01-16 05:05:00,5.2,-11.5,23.30,NNW,342,0.0,0.0,45,0.00,,---,0.00,VWS V14.00,2013-01-16 12:05:00,
2013-01-16 05:10:00,5.2,-11.5,23.30,NNW,342,0.0,0.0,45,0.00,,---,0.00,VWS V14.00,2013-01-16 12:10:00,
2013-01-16 05:15:00,5.2,-11.5,23.30,NNW,342,0.0,0.0,45,0.00,,---,0.00,VWS V14.00,2013-01-16 12:15:00,
2013-01-16 05:20:00,5.2,-11.5,23.30,NNW,342,0.0,0.0,45,0.00,,---,0.00,VWS V14.00,2013-01-16 12:20:00,
2013-01-16 05:25:00,5.0,-11.7,23.30,NNW,342,0.0,0.0,45,0.00,,---,0.00,VWS V14.00,2013-01-16 12:25:00,
2013-01-16 05:30:00,5.0,-11.7,23.30,NNW,342,0.0,0.0,45,0.00,,---,0.00,VWS V14.00,2013-01-16 12:30:00,
2013-01-16 05:35:00,5.0,-11.7,23.30,NNW,342,0.0,0.0,45,0.00,,---,0.00,VWS V14.00,2013-01-16 12:35:00,
2013-01-16 05:40:00,4.8,-11.9,23.30,NNW,342,0.0,0.0,45,0.00,,---,0.00,VWS V14.00,2013-01-16 12:40:00,
2013-01-16 05:45:00,4.5,-12.2,23.30,NNW,342,0.0,0.0,45,0.00,,---,0.00,VWS V14.00,2013-01-16 12:45:00,
2013-01-16 05:50:00,4.5,-12.2,23.30,NNW,342,0.0,0.0,45,0.00,,---,0.00,VWS V14.00,2013-01-16 12:50:00,
2013-01-16 05:55:00,4.5,-12.2,23.30,NNW,342,0.0,0.0,45,0.00,,---,0.00,VWS V14.00,2013-01-16 12:55:00,
2013-01-16 06:00:00,4.5,-12.2,23.30,NNW,342,0.0,0.0,45,0.00,,---,0.00,VWS V14.00,2013-01-16 13:00:00,
2013-01-16 06:05:00,4.5,-12.2,23.30,NNW,342,0.0,0.0,45,0.00,,---,0.00,VWS V14.00,2013-01-16 13:05:00,
2013-01-16 06:10:00,4.5,-12.2,23.30,NNW,342,0.0,0.0,45,0.00,,---,0.00,VWS V14.00,2013-01-16 13:10:00,
2013-01-16 06:15:00,4.3,-12.4,23.27,NNW,342,0.0,0.0,45,0.00,,---,0.00,VWS V14.00,2013-01-16 13:15:00,
2013-01-16 06:20:00,4.5,-12.2,23.27,NNW,342,0.0,0.0,45,0.00,,---,0.00,VWS V14.00,2013-01-16 13:20:00,
2013-01-16 06:25:00,4.5,-12.2,23.27,NNW,342,0.0,0.0,45,0.00,,---,0.00,VWS V14.00,2013-01-16 13:25:00,
2013-01-16 06:30:00,4.5,-12.2,23.27,NNE,12,0.0,0.0,45,0.00,,---,0.00,VWS V14.00,2013-01-16 13:30:00,
2013-01-16 06:36:00,4.6,-12.0,23.27,NNE,12,0.0,0.0,45,0.00,,---,0.00,VWS V14.00,2013-01-16 13:36:00,
2013-01-16 06:41:00,4.6,-12.0,23.27,NNE,12,0.0,0.0,45,0.00,,---,0.00,VWS V14.00,2013-01-16 13:41:00,
2013-01-16 06:46:00,4.6,-12.0,23.27,NNE,12,0.0,0.0,45,0.00,,---,0.00,VWS V14.00,2013-01-16 13:46:00,
2013-01-16 06:51:00,4.5,-12.2,23.27,NNE,12,0.0,0.0,45,0.00,,---,0.00,VWS V14.00,2013-01-16 13:51:00,
2013-01-16 06:56:00,4.5,-12.2,23.27,NNE,12,0.0,0.0,45,0.00,,---,0.00,VWS V14.00,2013-01-16 13:56:00,
2013-01-16 07:01:00,4.5,-12.2,23.27,NNE,12,0.0,0.0,45,0.00,,---,0.00,VWS V14.00,2013-01-16 14:01:00,
2013-01-16 07:06:00,4.5,-12.2,23.27,NNE,12,0.0,0.0,45,0.00,,---,0.00,VWS V14.00,2013-01-16 14:06:00,
2013-01-16 07:11:00,4.5,-12.2,23.27,NNE,12,0.0,0.0,45,0.00,,---,0.00,VWS V14.00,2013-01-16 14:11:00,
2013-01-16 07:16:00,4.5,-12.2,23.27,NNE,12,0.0,0.0,45,0.00,,---,0.00,VWS V14.00,2013-01-16 14:16:00,
2013-01-16 07:21:00,4.5,-12.2,23.27,NNE,12,0.0,0.0,45,0.00,,---,0.00,VWS V14.00,2013-01-16 14:21:00,
2013-01-16 07:26:00,4.5,-12.2,23.27,NNE,12,0.0,0.0,45,0.00,,---,0.00,VWS V14.00,2013-01-16 14:26:00,
2013-01-16 07:31:00,4.5,-12.2,23.27,NNE,14,0.0,0.0,45,0.00,,---,0.00,VWS V14.00,2013-01-16 14:31:00,
2013-01-16 07:36:00,4.5,-12.2,23.27,NNE,14,0.0,0.0,45,0.00,,---,0.00,VWS V14.00,2013-01-16 14:36:00,
2013-01-16 07:41:00,4.5,-12.2,23.27,NNE,14,0.0,0.0,45,0.00,,---,0.00,VWS V14.00,2013-01-16 14:41:00,
2013-01-16 07:46:00,4.6,-12.0,23.27,NNE,14,0.0,0.0,45,0.00,,---,0.00,VWS V14.00,2013-01-16 14:46:00,
2013-01-16 07:51:00,4.8,-11.9,23.27,NNE,14,0.0,0.0,45,0.00,,---,0.00,VWS V14.00,2013-01-16 14:51:00,
2013-01-16 07:56:00,5.0,-11.7,23.27,NNE,14,0.0,0.0,45,0.00,,---,0.00,VWS V14.00,2013-01-16 14:56:00,
2013-01-16 08:01:00,5.2,-11.5,23.27,NNE,14,0.0,0.0,45,0.00,,---,0.00,VWS V14.00,2013-01-16 15:01:00,
2013-01-16 08:06:00,5.4,-11.4,23.27,NNE,14,0.0,0.0,45,0.00,,---,0.00,VWS V14.00,2013-01-16 15:06:00,
2013-01-16 08:11:00,5.9,-10.9,23.27,NNE,14,0.0,0.0,45,0.00,,---,0.00,VWS V14.00,2013-01-16 15:11:00,
2013-01-16 08:16:00,6.1,-10.7,23.30,NNE,14,0.0,0.0,45,0.00,,---,0.00,VWS V14.00,2013-01-16 15:16:00,
2013-01-16 08:22:00,6.6,-10.2,23.30,NNE,14,0.0,0.0,45,0.00,,---,0.00,VWS V14.00,2013-01-16 15:22:00,
2013-01-16 08:27:00,7.0,-9.9,23.30,NNE,12,0.0,0.0,45,0.00,,---,0.00,VWS V14.00,2013-01-16 15:27:00,
2013-01-16 08:32:00,7.5,-9.4,23.30,NNE,12,0.0,0.0,45,0.00,,---,0.00,VWS V14.00,2013-01-16 15:32:00,
2013-01-16 08:37:00,8.4,-8.5,23.30,NNE,12,0.0,0.0,45,0.00,,---,0.00,VWS V14.00,2013-01-16 15:37:00,
2013-01-16 08:42:00,9.1,-7.9,23.30,NNE,12,0.0,0.0,45,0.00,,---,0.00,VWS V14.00,2013-01-16 15:42:00,
2013-01-16 08:47:00,9.9,-7.2,23.30,NNE,13,0.0,0.0,45,0.00,,---,0.00,VWS V14.00,2013-01-16 15:47:00,
2013-01-16 08:52:00,10.8,-6.4,23.30,NNE,13,0.0,0.0,45,0.00,,---,0.00,VWS V14.00,2013-01-16 15:52:00,
2013-01-16 08:57:00,11.7,-5.6,23.30,NNE,13,0.0,0.0,45,0.00,,---,0.00,VWS V14.00,2013-01-16 15:57:00,
2013-01-16 09:02:00,12.9,-4.4,23.30,NNE,13,0.0,0.0,45,0.00,,---,0.00,VWS V14.00,2013-01-16 16:02:00,
2013-01-16 09:07:00,14.4,-3.6,23.30,NNE,13,0.0,0.0,44,0.00,,---,0.00,VWS V14.00,2013-01-16 16:07:00,
2013-01-16 09:12:00,15.3,-2.7,23.30,NNE,13,0.0,0.0,44,0.00,,---,0.00,VWS V14.00,2013-01-16 16:12:00,
2013-01-16 09:17:00,16.3,-1.7,23.30,NNE,13,0.0,0.0,44,0.00,,---,0.00,VWS V14.00,2013-01-16 16:17:00,
2013-01-16 09:22:00,17.4,-0.8,23.30,NE,50,0.0,2.7,44,0.00,,---,0.00,VWS V14.00,2013-01-16 16:22:00,
2013-01-16 09:27:00,18.7,-0.1,23.30,NE,50,0.0,0.0,43,0.00,,---,0.00,VWS V14.00,2013-01-16 16:27:00,
2013-01-16 09:32:00,20.1,1.2,23.30,East,87,0.0,0.0,43,0.00,,---,0.00,VWS V14.00,2013-01-16 16:32:00,
2013-01-16 09:37:00,21.6,2.5,23.30,East,87,0.0,0.0,43,0.00,,---,0.00,VWS V14.00,2013-01-16 16:37:00,
2013-01-16 09:42:00,23.0,3.8,23.30,East,80,0.0,3.1,43,0.00,,---,0.00,VWS V14.00,2013-01-16 16:42:00,
2013-01-16 09:47:00,23.9,4.2,23.30,ENE,77,2.7,3.1,42,0.00,,---,0.00,VWS V14.00,2013-01-16 16:47:00,
2013-01-16 09:52:00,25.3,5.5,23.30,East,80,0.0,0.0,42,0.00,,---,0.00,VWS V14.00,2013-01-16 16:52:00,
2013-01-16 09:57:00,27.0,6.4,23.30,East,89,0.0,0.0,41,0.00,,---,0.00,VWS V14.00,2013-01-16 16:57:00,
2013-01-16 10:02:00,27.9,7.2,23.30,ENE,61,2.7,2.7,41,0.00,,---,0.00,VWS V14.00,2013-01-16 17:02:00,
2013-01-16 10:07:00,28.9,8.2,23.30,East,80,0.0,0.0,41,0.00,,---,0.00,VWS V14.00,2013-01-16 17:07:00,
2013-01-16 10:12:00,29.7,8.9,23.30,ESE,108,2.7,3.1,41,0.00,,---,0.00,VWS V14.00,2013-01-16 17:12:00,
2013-01-16 10:17:00,30.2,9.4,23.30,SSE,155,5.4,6.3,41,0.00,,---,0.00,VWS V14.00,2013-01-16 17:17:00,
2013-01-16 10:22:00,31.1,10.2,23.30,SSE,148,2.7,3.1,41,0.00,,---,0.00,VWS V14.00,2013-01-16 17:22:00,
2013-01-16 10:28:00,32.0,11.0,23.30,ESE,107,3.6,3.6,41,0.00,,---,0.00,VWS V14.00,2013-01-16 17:28:00,
2013-01-16 10:33:00,32.5,11.5,23.30,SE,125,2.7,3.6,41,0.00,,---,0.00,VWS V14.00,2013-01-16 17:33:00,
2013-01-16 10:38:00,32.9,11.8,23.30,SSE,154,2.7,4.0,41,0.00,,---,0.00,VWS V14.00,2013-01-16 17:38:00,
2013-01-16 10:43:00,34.0,12.2,23.30,ESE,104,3.6,3.6,40,0.00,,---,0.00,VWS V14.00,2013-01-16 17:43:00,
2013-01-16 10:48:00,33.6,12.4,23.30,East,101,3.6,5.4,41,0.00,,---,0.00,VWS V14.00,2013-01-16 17:48:00,
2013-01-16 10:53:00,33.4,12.3,23.30,East,98,3.1,6.3,41,0.00,,---,0.00,VWS V14.00,2013-01-16 17:53:00,
2013-01-16 10:58:00,33.8,12.1,23.30,South,176,3.6,3.6,40,0.00,,---,0.00,VWS V14.00,2013-01-16 17:58:00,
2013-01-16 11:03:00,35.2,13.4,23.27,SE,138,2.7,2.7,40,0.00,,---,0.00,VWS V14.00,2013-01-16 18:03:00,
2013-01-16 11:08:00,36.3,14.3,23.27,ESE,102,3.6,5.8,40,0.00,,---,0.00,VWS V14.00,2013-01-16 18:08:00,
2013-01-16 11:13:00,37.0,15.0,23.27,NNE,12,3.1,3.1,40,0.00,,---,0.00,VWS V14.00,2013-01-16 18:13:00,
2013-01-16 11:18:00,37.4,14.7,23.27,SSE,148,3.6,3.6,39,0.00,,---,0.00,VWS V14.00,2013-01-16 18:18:00,
2013-01-16 11:23:00,37.6,14.9,23.27,East,89,5.4,5.4,39,0.00,,---,0.00,VWS V14.00,2013-01-16 18:23:00,
2013-01-16 11:32:00,38.3,15.5,23.27,SE,143,4.0,4.0,39,0.00,,---,0.00,VWS V14.00,2013-01-16 18:32:00,
2013-01-16 11:37:00,38.8,16.0,23.27,East,87,0.0,5.4,39,0.00,,---,0.00,VWS V14.00,2013-01-16 18:37:00,
2013-01-16 11:42:00,38.7,15.9,23.27,NE,34,3.6,5.4,39,0.00,,---,0.00,VWS V14.00,2013-01-16 18:42:00,
2013-01-16 11:47:00,38.3,15.5,23.27,East,100,3.1,4.9,39,0.00,,---,0.00,VWS V14.00,2013-01-16 18:47:00,
2013-01-16 11:52:00,38.8,16.0,23.27,SE,126,4.9,6.3,39,0.00,,---,0.00,VWS V14.00,2013-01-16 18:52:00,
2013-01-16 11:57:00,38.7,15.9,23.27,SSE,167,3.1,3.6,39,0.00,,---,0.00,VWS V14.00,2013-01-16 18:57:00,
2013-01-16 12:02:00,39.4,16.5,23.27,SSE,148,4.5,4.5,39,0.00,,---,0.00,VWS V14.00,2013-01-16 19:02:00,
2013-01-16 12:08:00,40.6,17.6,23.27,SSE,160,8.1,8.1,39,0.00,,---,0.00,VWS V14.00,2013-01-16 19:08:00,
2013-01-16 12:13:00,41.0,18.0,23.27,NNW,334,4.0,4.0,39,0.00,,---,0.00,VWS V14.00,2013-01-16 19:13:00,
2013-01-16 12:18:00,40.8,17.8,23.27,ESE,119,5.8,6.3,39,0.00,,---,0.00,VWS V14.00,2013-01-16 19:18:00,
2013-01-16 12:23:00,41.0,18.0,23.27,East,91,5.4,6.3,39,0.00,,---,0.00,VWS V14.00,2013-01-16 19:23:00,
2013-01-16 12:28:00,40.5,17.5,23.27,SSE,167,4.0,4.9,39,0.00,,---,0.00,VWS V14.00,2013-01-16 19:28:00,
2013-01-16 12:33:00,40.6,17.6,23.24,East,92,3.1,5.4,39,0.00,,---,0.00,VWS V14.00,2013-01-16 19:33:00,
2013-01-16 12:38:00,42.1,18.9,23.24,East,81,4.9,4.9,39,0.00,,---,0.00,VWS V14.00,2013-01-16 19:38:00,
2013-01-16 12:43:00,41.9,18.8,23.24,ENE,71,5.8,5.8,39,0.00,,---,0.00,VWS V14.00,2013-01-16 19:43:00,
2013-01-16 12:48:00,41.0,18.0,23.24,ESE,112,3.1,4.9,39,0.00,,---,0.00,VWS V14.00,2013-01-16 19:48:00,
2013-01-16 12:53:00,40.8,17.8,23.24,SE,139,5.4,5.8,39,0.00,,---,0.00,VWS V14.00,2013-01-16 19:53:00,
2013-01-16 12:58:00,40.6,17.6,23.24,East,97,3.6,6.3,39,0.00,,---,0.00,VWS V14.00,2013-01-16 19:58:00,
2013-01-16 13:03:00,40.6,17.6,23.24,East,88,4.0,4.0,39,0.00,,---,0.00,VWS V14.00,2013-01-16 20:03:00,
2013-01-16 13:08:00,41.7,18.6,23.24,ESE,104,5.4,8.1,39,0.00,,---,0.00,VWS V14.00,2013-01-16 20:08:00,
2013-01-16 13:13:00,41.5,18.4,23.24,SSE,148,6.3,6.3,39,0.00,,---,0.00,VWS V14.00,2013-01-16 20:13:00,
2013-01-16 13:18:00,39.9,17.0,23.24,East,88,8.7,8.7,39,0.00,,---,0.00,VWS V14.00,2013-01-16 20:18:00,
2013-01-16 13:23:00,39.7,16.8,23.24,ENE,69,3.6,3.6,39,0.00,,---,0.00,VWS V14.00,2013-01-16 20:23:00,
2013-01-16 13:28:00,39.2,16.3,23.24,SE,143,4.9,5.8,39,0.00,,---,0.00,VWS V14.00,2013-01-16 20:28:00,
2013-01-16 13:33:00,38.8,16.0,23.24,ENE,59,5.4,6.3,39,0.00,,---,0.00,VWS V14.00,2013-01-16 20:33:00,
2013-01-16 13:38:00,38.3,15.5,23.24,SE,124,5.4,6.7,39,0.00,,---,0.00,VWS V14.00,2013-01-16 20:38:00,
2013-01-16 13:43:00,37.8,15.0,23.24,East,98,6.3,6.3,39,0.00,,---,0.00,VWS V14.00,2013-01-16 20:43:00,
2013-01-16 13:48:00,37.4,14.7,23.24,SE,128,5.8,5.8,39,0.00,,---,0.00,VWS V14.00,2013-01-16 20:48:00,
2013-01-16 13:53:00,37.4,14.7,23.24,NE,42,5.4,5.4,39,0.00,,---,0.00,VWS V14.00,2013-01-16 20:53:00,
2013-01-16 13:58:00,37.0,15.0,23.21,East,82,2.7,4.0,40,0.00,,---,0.00,VWS V14.00,2013-01-16 20:58:00,
2013-01-16 14:04:00,36.9,14.8,23.21,ENE,75,8.1,10.1,40,0.00,,---,0.00,VWS V14.00,2013-01-16 21:04:00,
2013-01-16 14:09:00,36.9,14.8,23.21,ESE,120,5.4,5.4,40,0.00,,---,0.00,VWS V14.00,2013-01-16 21:09:00,
2013-01-16 14:14:00,36.9,14.8,23.24,NE,41,5.4,6.3,40,0.00,,---,0.00,VWS V14.00,2013-01-16 21:14:00,
2013-01-16 14:19:00,36.9,14.8,23.24,East,99,5.8,5.8,40,0.00,,---,0.00,VWS V14.00,2013-01-16 21:19:00,
2013-01-16 14:24:00,37.0,15.0,23.24,SSE,156,2.2,3.1,40,0.00,,---,0.00,VWS V14.00,2013-01-16 21:24:00,
2013-01-16 14:29:00,37.0,15.0,23.24,East,100,5.4,5.4,40,0.00,,---,0.00,VWS V14.00,2013-01-16 21:29:00,
2013-01-16 14:34:00,37.0,15.0,23.24,ENE,77,5.4,5.8,40,0.00,,---,0.00,VWS V14.00,2013-01-16 21:34:00,
2013-01-16 14:39:00,36.7,14.6,23.24,NE,49,8.1,9.2,40,0.00,,---,0.00,VWS V14.00,2013-01-16 21:39:00,
2013-01-16 14:44:00,36.7,14.6,23.24,East,88,5.4,6.3,40,0.00,,---,0.00,VWS V14.00,2013-01-16 21:44:00,
2013-01-16 14:49:00,36.7,14.6,23.24,East,88,3.1,6.3,40,0.00,,---,0.00,VWS V14.00,2013-01-16 21:49:00,
2013-01-16 14:54:00,36.7,14.6,23.24,ESE,120,3.6,4.9,40,0.00,,---,0.00,VWS V14.00,2013-01-16 21:54:00,
2013-01-16 14:59:00,36.5,14.5,23.24,ESE,104,5.4,9.6,40,0.00,,---,0.00,VWS V14.00,2013-01-16 21:59:00,
2013-01-16 15:04:00,36.5,14.5,23.24,SSE,148,5.4,5.8,40,0.00,,---,0.00,VWS V14.00,2013-01-16 22:04:00,
2013-01-16 15:09:00,36.3,14.3,23.24,East,101,5.4,5.4,40,0.00,,---,0.00,VWS V14.00,2013-01-16 22:09:00,
2013-01-16 15:15:00,36.1,14.2,23.24,East,88,5.4,6.3,40,0.00,,---,0.00,VWS V14.00,2013-01-16 22:15:00,
2013-01-16 16:42:00,34.9,13.0,23.24,NE,35,5.4,5.4,40,0.00,,---,0.00,VWS V14.00,2013-01-16 23:42:00,
2013-01-16 16:47:00,34.5,12.7,23.27,East,101,3.1,5.8,40,0.00,,---,0.00,VWS V14.00,2013-01-16 23:47:00,
2013-01-16 16:52:00,34.3,12.5,23.27,SE,138,3.1,3.1,40,0.00,,---,0.00,VWS V14.00,2013-01-16 23:52:00,
2013-01-16 16:57:00,34.2,12.4,23.27,ESE,106,2.2,2.7,40,0.00,,---,0.00,VWS V14.00,2013-01-16 23:57:00,
2013-01-16 17:02:00,33.8,12.1,23.27,SSE,157,2.7,4.0,40,0.00,,---,0.00,VWS V14.00,2013-01-17 00:02:00,
2013-01-16 17:07:00,33.3,12.1,23.27,SE,144,4.0,4.0,41,0.00,,---,0.00,VWS V14.00,2013-01-17 00:07:00,
2013-01-16 17:12:00,33.1,12.0,23.27,SSE,167,2.7,2.7,41,0.00,,---,0.00,VWS V14.00,2013-01-17 00:12:00,
2013-01-16 17:17:00,32.7,11.6,23.27,ESE,110,4.9,4.9,41,0.00,,---,0.00,VWS V14.00,2013-01-17 00:17:00,
2013-01-16 17:22:00,32.4,11.3,23.27,East,98,5.8,7.6,41,0.00,,---,0.00,VWS V14.00,2013-01-17 00:22:00,
2013-01-16 17:27:00,32.0,11.0,23.27,East,98,3.6,3.6,41,0.00,,---,0.00,VWS V14.00,2013-01-17 00:27:00,
2013-01-16 17:32:00,31.5,10.5,23.27,ESE,120,2.2,2.2,41,0.00,,---,0.00,VWS V14.00,2013-01-17 00:32:00,
2013-01-16 17:37:00,30.9,10.0,23.27,ESE,115,2.7,3.1,41,0.00,,---,0.00,VWS V14.00,2013-01-17 00:37:00,
2013-01-16 17:42:00,30.4,9.5,23.27,ESE,121,2.7,2.7,41,0.00,,---,0.00,VWS V14.00,2013-01-17 00:42:00,
2013-01-16 17:47:00,29.8,9.0,23.27,ESE,118,0.0,3.1,41,0.00,,---,0.00,VWS V14.00,2013-01-17 00:47:00,
2013-01-16 17:53:00,29.5,8.7,23.27,SE,145,3.6,3.6,41,0.00,,---,0.00,VWS V14.00,2013-01-17 00:53:00,
2013-01-16 17:58:00,29.1,8.4,23.27,ESE,106,0.0,2.2,41,0.00,,---,0.00,VWS V14.00,2013-01-17 00:58:00,
2013-01-16 18:03:00,28.8,8.0,23.30,SSE,155,0.0,2.2,41,0.00,,---,0.00,VWS V14.00,2013-01-17 01:03:00,
2013-01-16 18:08:00,28.4,7.7,23.30,ESE,102,4.0,4.5,41,0.00,,---,0.00,VWS V14.00,2013-01-17 01:08:00,
2013-01-16 18:13:00,27.9,7.2,23.30,SE,126,2.7,2.7,41,0.00,,---,0.00,VWS V14.00,2013-01-17 01:13:00,
2013-01-16 18:18:00,27.7,7.1,23.30,SE,136,3.1,3.1,41,0.00,,---,0.00,VWS V14.00,2013-01-17 01:18:00,
2013-01-16 18:23:00,27.5,6.9,23.30,East,98,2.2,3.6,41,0.00,,---,0.00,VWS V14.00,2013-01-17 01:23:00,
2013-01-16 18:28:00,27.3,6.7,23.30,SE,124,3.1,3.1,41,0.00,,---,0.00,VWS V14.00,2013-01-17 01:28:00,
2013-01-16 18:33:00,27.1,6.6,23.30,SE,129,5.4,5.4,41,0.00,,---,0.00,VWS V14.00,2013-01-17 01:33:00,
2013-01-16 18:38:00,27.1,6.6,23.30,ESE,103,2.7,2.7,41,0.00,,---,0.00,VWS V14.00,2013-01-17 01:38:00,
2013-01-16 18:43:00,27.0,6.4,23.30,ESE,108,0.0,0.0,41,0.00,,---,0.00,VWS V14.00,2013-01-17 01:43:00,
2013-01-16 18:48:00,26.8,6.2,23.27,ESE,104,2.7,3.6,41,0.00,,---,0.00,VWS V14.00,2013-01-17 01:48:00,
2013-01-16 18:53:00,26.8,6.2,23.27,ESE,122,0.0,0.0,41,0.00,,---,0.00,VWS V14.00,2013-01-17 01:53:00,
2013-01-16 18:58:00,26.6,6.6,23.27,ESE,123,0.0,0.0,42,0.00,,---,0.00,VWS V14.00,2013-01-17 01:58:00,
2013-01-16 19:03:00,26.4,6.4,23.27,SE,137,0.0,0.0,42,0.00,,---,0.00,VWS V14.00,2013-01-17 02:03:00,
2013-01-16 19:08:00,26.4,6.4,23.27,East,88,3.1,3.1,42,0.00,,---,0.00,VWS V14.00,2013-01-17 02:08:00,
2013-01-16 19:13:00,26.4,6.4,23.30,SSE,149,2.7,2.7,42,0.00,,---,0.00,VWS V14.00,2013-01-17 02:13:00,
2013-01-16 19:18:00,26.6,6.6,23.30,NE,34,2.2,2.7,42,0.00,,---,0.00,VWS V14.00,2013-01-17 02:18:00,
2013-01-16 19:23:00,26.2,6.3,23.30,NE,34,0.0,0.0,42,0.00,,---,0.00,VWS V14.00,2013-01-17 02:23:00,
2013-01-16 19:28:00,26.1,6.1,23.27,NE,34,0.0,0.0,42,0.00,,---,0.00,VWS V14.00,2013-01-17 02:28:00,
2013-01-16 19:33:00,25.5,5.6,23.27,NE,34,0.0,0.0,42,0.00,,---,0.00,VWS V14.00,2013-01-17 02:33:00,
2013-01-16 19:39:00,25.3,5.5,23.27,NE,34,0.0,0.0,42,0.00,,---,0.00,VWS V14.00,2013-01-17 02:39:00,
2013-01-16 19:44:00,25.0,5.1,23.27,NE,34,0.0,0.0,42,0.00,,---,0.00,VWS V14.00,2013-01-17 02:44:00,
2013-01-16 19:49:00,25.0,5.1,23.27,North,7,0.0,0.0,42,0.00,,---,0.00,VWS V14.00,2013-01-17 02:49:00,
2013-01-16 19:54:00,25.0,5.1,23.27,NNE,15,0.0,0.0,42,0.00,,---,0.00,VWS V14.00,2013-01-17 02:54:00,
2013-01-16 19:59:00,25.0,5.1,23.27,NE,44,0.0,0.0,42,0.00,,---,0.00,VWS V14.00,2013-01-17 02:59:00,
2013-01-16 20:04:00,24.8,5.0,23.27,NE,44,0.0,0.0,42,0.00,,---,0.00,VWS V14.00,2013-01-17 03:04:00,
2013-01-16 20:09:00,24.4,4.7,23.27,ENE,72,0.0,0.0,42,0.00,,---,0.00,VWS V14.00,2013-01-17 03:09:00,
2013-01-16 20:14:00,24.4,4.7,23.30,ENE,68,0.0,0.0,42,0.00,,---,0.00,VWS V14.00,2013-01-17 03:14:00,
2013-01-16 20:20:00,24.3,4.5,23.30,ENE,68,0.0,0.0,42,0.00,,---,0.00,VWS V14.00,2013-01-17 03:20:00,
2013-01-16 20:25:00,24.1,4.3,23.30,ESE,113,0.0,0.0,42,0.00,,---,0.00,VWS V14.00,2013-01-17 03:25:00,
2013-01-16 20:30:00,24.1,4.3,23.30,ESE,113,0.0,0.0,42,0.00,,---,0.00,VWS V14.00,2013-01-17 03:30:00,
2013-01-16 20:35:00,24.1,4.3,23.30,ESE,117,0.0,0.0,42,0.00,,---,0.00,VWS V14.00,2013-01-17 03:35:00,
2013-01-16 20:40:00,24.1,4.3,23.30,ESE,117,0.0,0.0,42,0.00,,---,0.00,VWS V14.00,2013-01-17 03:40:00,
2013-01-16 20:45:00,24.1,4.3,23.30,SSE,152,2.2,3.6,42,0.00,,---,0.00,VWS V14.00,2013-01-17 03:45:00,
2013-01-16 20:50:00,24.3,4.5,23.30,South,177,2.7,2.7,42,0.00,,---,0.00,VWS V14.00,2013-01-17 03:50:00,
2013-01-16 20:55:00,24.3,4.5,23.30,SSE,158,2.2,2.7,42,0.00,,---,0.00,VWS V14.00,2013-01-17 03:55:00,
2013-01-16 21:00:00,24.3,4.5,23.30,SE,131,0.0,0.0,42,0.00,,---,0.00,VWS V14.00,2013-01-17 04:00:00,
2013-01-16 21:05:00,24.3,4.5,23.30,SSE,152,3.6,4.0,42,0.00,,---,0.00,VWS V14.00,2013-01-17 04:05:00,
2013-01-16 21:10:00,24.3,4.5,23.30,East,99,0.0,2.2,42,0.00,,---,0.00,VWS V14.00,2013-01-17 04:10:00,
2013-01-16 21:15:00,24.3,4.5,23.30,East,92,2.2,2.7,42,0.00,,---,0.00,VWS V14.00,2013-01-17 04:15:00,
2013-01-16 21:20:00,24.4,4.7,23.30,ESE,102,2.7,3.6,42,0.00,,---,0.00,VWS V14.00,2013-01-17 04:20:00,
2013-01-16 21:25:00,24.4,4.7,23.30,East,91,3.6,3.6,42,0.00,,---,0.00,VWS V14.00,2013-01-17 04:25:00,
2013-01-16 21:30:00,24.3,4.5,23.30,ESE,103,0.0,4.0,42,0.00,,---,0.00,VWS V14.00,2013-01-17 04:30:00,
2013-01-16 21:36:00,24.1,4.3,23.30,East,93,2.7,3.6,42,0.00,,---,0.00,VWS V14.00,2013-01-17 04:36:00,
2013-01-16 21:41:00,23.9,4.2,23.30,SE,137,0.0,0.0,42,0.00,,---,0.00,VWS V14.00,2013-01-17 04:41:00,
2013-01-16 21:46:00,23.9,4.2,23.30,East,91,2.7,2.7,42,0.00,,---,0.00,VWS V14.00,2013-01-17 04:46:00,
2013-01-16 21:51:00,23.9,4.2,23.30,SE,145,2.2,3.1,42,0.00,,---,0.00,VWS V14.00,2013-01-17 04:51:00,
2013-01-16 21:56:00,24.1,4.3,23.30,SE,124,0.0,0.0,42,0.00,,---,0.00,VWS V14.00,2013-01-17 04:56:00,
2013-01-16 22:01:00,23.9,4.2,23.30,ESE,109,3.1,3.1,42,0.00,,---,0.00,VWS V14.00,2013-01-17 05:01:00,
2013-01-16 22:03:00,23.9,4.2,23.30,ESE,108,4.9,4.9,42,0.00,,---,0.00,VWS V14.00,2013-01-17 05:03:00,
2013-01-16 22:04:00,23.9,4.2,23.30,SSE,156,3.1,4.9,42,0.00,,---,0.00,VWS V14.00,2013-01-17 05:04:00,
2013-01-16 22:09:00,24.1,4.3,23.30,SE,144,3.1,3.1,42,0.00,,---,0.00,VWS V14.00,2013-01-17 05:09:00,
2013-01-16 22:14:00,24.3,4.5,23.30,SE,145,2.7,3.6,42,0.00,,---,0.00,VWS V14.00,2013-01-17 05:14:00,
2013-01-16 22:19:00,24.3,4.5,23.30,SE,133,3.6,4.9,42,0.00,,---,0.00,VWS V14.00,2013-01-17 05:19:00,
2013-01-16 22:24:00,24.1,4.3,23.30,ESE,112,3.6,5.4,42,0.00,,---,0.00,VWS V14.00,2013-01-17 05:24:00,
2013-01-16 22:29:00,24.1,4.3,23.30,SE,132,2.2,2.7,42,0.00,,---,0.00,VWS V14.00,2013-01-17 05:29:00,
2013-01-16 22:34:00,23.9,4.2,23.30,SE,138,2.7,3.1,42,0.00,,---,0.00,VWS V14.00,2013-01-17 05:34:00,
2013-01-16 22:40:00,23.7,4.0,23.30,SE,133,4.0,4.5,42,0.00,,---,0.00,VWS V14.00,2013-01-17 05:40:00,
2013-01-16 22:45:00,23.7,4.0,23.30,SE,128,4.0,5.4,42,0.00,,---,0.00,VWS V14.00,2013-01-17 05:45:00,
2013-01-16 22:50:00,23.7,4.0,23.30,SSE,151,3.6,5.4,42,0.00,,---,0.00,VWS V14.00,2013-01-17 05:50:00,
2013-01-16 22:55:00,23.7,4.0,23.30,SSE,150,2.7,2.7,42,0.00,,---,0.00,VWS V14.00,2013-01-17 05:55:00,
2013-01-16 23:00:00,23.5,3.8,23.30,East,94,3.1,3.1,42,0.00,,---,0.00,VWS V14.00,2013-01-17 06:00:00,
2013-01-16 23:05:00,23.4,3.7,23.30,SE,143,4.0,5.4,42,0.00,,---,0.00,VWS V14.00,2013-01-17 06:05:00,
2013-01-16 23:10:00,23.4,3.7,23.30,ESE,104,2.7,2.7,42,0.00,,---,0.00,VWS V14.00,2013-01-17 06:10:00,
2013-01-16 23:15:00,23.4,3.7,23.30,East,96,2.7,2.7,42,0.00,,---,0.00,VWS V14.00,2013-01-17 06:15:00,
2013-01-16 23:20:00,23.4,3.7,23.30,ESE,114,4.9,4.9,42,0.00,,---,0.00,VWS V14.00,2013-01-17 06:20:00,
2013-01-16 23:25:00,23.2,3.5,23.30,SSE,158,4.0,4.0,42,0.00,,---,0.00,VWS V14.00,2013-01-17 06:25:00,
2013-01-16 23:30:00,23.2,3.5,23.30,SSE,148,3.1,3.1,42,0.00,,---,0.00,VWS V14.00,2013-01-17 06:30:00,
2013-01-16 23:35:00,23.2,3.5,23.30,ESE,117,3.6,3.6,42,0.00,,---,0.00,VWS V14.00,2013-01-17 06:35:00,
2013-01-16 23:40:00,23.2,3.5,23.30,SE,140,4.0,4.9,42,0.00,,---,0.00,VWS V14.00,2013-01-17 06:40:00,
2013-01-16 23:45:00,23.2,3.5,23.30,ESE,112,3.1,3.1,42,0.00,,---,0.00,VWS V14.00,2013-01-17 06:45:00,
2013-01-16 23:50:00,23.0,3.8,23.30,SSE,149,4.9,4.9,43,0.00,,---,0.00,VWS V14.00,2013-01-17 06:50:00,
2013-01-16 23:55:00,23.0,3.8,23.30,SSE,149,2.7,3.6,43,0.00,,---,0.00,VWS V14.00,2013-01-17 06:55:00,